GEFSNGP_850_meantemp_066.txt.gz
Temperature
23 24 24 24 25 24 22 20 19 19 18 18 18 18 19 19 18 18 17 17 16 15 15 14 13 13 12 12 12 11 11 10 10 9 9 9 9 8 8 8 8 8 8 8
22 24 24 24 24 24 23 22 20 19 19 19 19 19 18 18 18 17 17 16 16 15 14 14 13 13 12 12 11 11 10 10 9 9 9 9 8 8 8 8 8 8 8 8
20 22 23 22 23 23 23 22 21 19 19 19 17 17 17 18 18 17 16 16 15 14 14 13 13 12 12 11 11 10 10 9 9 9 8 8 8 8 8 8 8 8 8 8
19 20 22 21 23 23 21 20 20 19 19 18 18 18 18 18 18 17 16 16 15 14 14 13 12 12 11 11 10 10 10 9 9 8 8 8 8 8 8 8 8 8 8 8
18 20 21 22 23 22 20 20 20 19 19 19 18 17 17 18 17 17 16 15 15 14 13 13 12 12 11 11 10 10 9 9 8 8 8 8 8 8 8 8 8 8 8 8
19 20 20 21 23 23 20 19 20 20 19 19 18 15 15 17 17 17 16 15 14 14 13 12 12 11 11 10 10 9 9 9 8 8 8 8 8 8 8 8 8 8 8 8
19 19 20 22 24 23 21 19 21 21 21 20 18 17 19 18 17 17 16 15 14 14 13 12 12 11 11 10 9 9 9 8 8 8 8 8 8 8 8 8 8 8 7 7
18 19 20 22 23 21 20 22 22 22 21 21 20 19 18 18 17 17 16 15 14 13 13 12 11 11 10 10 9 9 9 8 8 8 8 8 8 8 8 8 8 7 7 7
18 19 21 24 24 24 24 23 22 22 21 21 20 19 19 18 17 16 16 15 14 13 12 12 11 11 10 10 9 9 9 8 8 8 8 8 8 8 8 8 8 7 7 7
20 20 22 24 25 24 24 23 23 22 21 21 20 19 19 18 17 16 15 15 14 13 12 12 11 10 10 9 9 9 8 8 8 8 8 8 8 8 8 8 8 7 7 7
20 21 23 24 24 24 24 23 22 22 21 21 20 19 19 18 17 16 15 14 14 13 12 11 11 10 10 9 9 9 9 8 8 8 8 8 8 8 8 8 8 7 7 7
20 21 20 23 24 24 23 23 22 22 21 21 20 20 19 18 17 16 15 14 13 13 12 11 11 10 10 9 9 9 9 9 8 8 8 8 8 9 9 8 8 8 7 7
25 25 25 24 24 24 24 23 23 22 22 21 20 20 19 18 17 16 15 14 14 13 12 11 11 10 10 9 9 9 9 9 9 8 9 9 9 8 9 9 8 8 7 7
25 25 24 24 24 24 23 23 23 22 22 21 20 19 19 18 17 16 15 14 14 13 12 11 11 10 10 10 9 9 9 9 9 9 9 9 9 9 8 8 8 8 8 7
24 24 24 24 24 23 23 23 22 22 21 20 20 19 18 18 17 16 15 14 14 13 12 11 11 11 10 10 9 9 9 9 9 9 9 9 9 9 9 8 8 8 8 8
23 23 23 22 22 22 22 22 21 21 21 20 19 19 18 17 17 16 15 15 14 13 12 12 11 11 10 10 10 10 9 9 9 9 9 9 9 9 9 9 8 8 8 8
20 19 20 20 20 21 21 21 21 21 20 20 19 18 18 17 16 16 15 15 14 13 12 12 11 11 10 10 10 10 9 10 9 10 10 9 9 9 9 9 9 9 8 8
18 18 18 18 19 19 19 20 20 20 19 19 19 18 17 17 17 16 15 14 14 13 12 12 11 11 10 10 10 10 10 10 10 10 10 10 10 10 9 9 9 9 9 9
16 16 17 17 17 18 18 18 18 18 18 18 18 17 17 17 16 16 15 14 14 13 13 12 11 11 11 10 10 10 10 10 10 10 10 10 10 10 10 9 9 9 9 9
15 16 16 16 16 17 17 17 17 17 17 17 17 17 17 16 16 16 15 14 14 13 13 12 12 11 11 10 10 10 10 10 10 10 10 10 10 10 10 10 10 10 9 9
14 15 15 15 15 15 15 15 16 16 16 16 16 16 16 16 16 15 15 14 14 13 13 12 12 11 11 10 10 10 10 10 10 10 10 10 10 10 10 10 10 10 10 10
13 13 14 14 14 14 14 14 14 15 15 15 15 15 15 15 15 15 14 14 14 13 12 12 11 11 11 10 10 10 9 9 10 10 10 10 10 10 10 10 10 10 10 10
13 13 13 13 13 13 13 13 13 13 13 14 14 14 14 14 14 14 14 14 13 12 12 12 11 11 10 10 10 9 9 9 9 10 10 10 10 10 10 10 10 10 10 10
12 12 12 12 12 12 12 13 13 13 13 13 13 13 13 13 13 13 13 13 12 12 11 11 11 10 10 10 9 9 9 9 9 9 10 10 10 10 10 10 10 10 10 10
12 12 12 12 12 12 12 12 12 12 12 12 12 12 12 13 13 13 13 12 12 11 11 11 10 10 10 9 9 9 9 9 9 9 10 10 10 10 11 11 11 11 11 10
11 11 11 11 11 11 11 11 11 11 11 11 11 11 11 12 12 12 12 11 11 10 10 10 10 9 9 9 8 8 8 9 9 9 9 10 10 10 10 10 11 11 11 11
11 11 11 11 11 11 10 10 10 10 10 10 10 10 11 11 11 11 11 10 10 10 10 9 9 9 9 9 8 8 8 8 8 9 9 9 9 10 10 10 10 11 11 11

GEFSNGP_850_meantemp_072.txt.gz
Temperature
19 20 21 21 21 20 19 17 17 18 17 17 17 17 18 18 18 18 18 18 17 17 16 15 14 13 13 12 12 11 11 10 10 10 9 9 9 9 9 8 8 8 8 8
21 21 21 21 21 21 20 19 18 18 18 17 17 18 18 18 18 18 18 18 17 16 15 15 14 13 12 12 11 11 10 10 10 9 9 9 9 8 8 8 8 8 8 8
19 20 21 21 21 21 21 20 18 18 18 17 17 16 18 18 18 18 18 18 17 16 15 14 13 13 12 11 11 10 10 10 9 9 9 9 8 8 8 8 8 8 8 8
18 20 21 20 20 20 20 20 18 18 18 16 18 19 19 19 19 19 18 17 16 16 15 14 13 12 12 11 11 10 10 9 9 9 9 8 8 8 8 8 8 8 8 8
16 19 20 20 20 19 20 20 19 18 17 17 17 17 18 19 19 19 18 17 16 15 14 14 13 12 11 11 10 10 10 9 9 9 8 8 8 8 8 8 8 8 8 8
16 19 19 20 21 20 20 20 19 18 17 16 16 15 16 20 19 18 18 17 16 15 14 13 13 12 11 11 10 10 9 9 9 8 8 8 8 8 8 8 8 8 8 8
16 18 18 19 20 20 20 19 21 20 19 17 16 18 20 20 19 18 18 17 16 15 14 13 12 12 11 11 10 10 9 9 9 9 8 8 8 8 8 8 8 8 8 8
15 18 19 20 19 19 20 22 23 22 22 21 21 21 20 20 19 18 17 17 16 15 14 13 12 12 11 11 10 10 10 9 9 9 8 8 8 8 8 8 8 8 8 8
16 18 19 20 21 23 23 23 24 23 22 22 21 21 20 20 19 18 18 17 16 15 14 13 12 12 11 11 10 10 10 9 9 9 9 9 8 8 8 8 8 8 8 8
16 17 19 22 23 23 24 24 24 24 23 22 21 21 20 20 19 18 18 17 16 15 14 14 13 12 11 11 10 10 10 10 9 9 9 9 9 8 8 8 8 8 8 7
17 17 20 23 24 24 24 24 23 23 23 22 22 21 21 20 19 19 18 17 16 15 15 14 13 12 11 11 10 10 10 10 9 9 9 9 9 9 9 8 8 8 8 7
17 20 18 22 23 23 23 23 23 23 22 22 22 21 21 20 20 19 18 17 16 16 15 14 13 12 12 11 11 10 10 10 10 9 9 9 9 9 9 9 8 8 8 7
20 21 20 21 21 22 22 23 23 22 22 22 21 21 20 20 19 18 18 17 16 16 15 14 13 13 12 11 11 10 10 10 9 9 9 9 9 9 9 9 9 8 8 8
18 19 18 19 19 21 21 21 21 21 21 21 20 20 19 19 18 18 18 17 16 15 15 14 13 13 12 11 11 11 10 10 10 9 9 9 9 9 9 9 9 9 8 8
16 17 16 17 18 19 20 20 20 19 19 19 19 19 18 18 18 18 17 17 16 15 15 14 14 13 12 12 11 11 10 10 10 10 9 9 9 9 9 9 9 9 8 8
15 16 16 17 17 17 18 18 18 18 18 18 18 18 18 17 17 17 17 16 16 15 15 14 13 13 12 12 11 11 10 10 10 10 9 9 9 9 9 9 9 9 8 8
15 14 14 15 15 15 15 16 16 16 17 17 17 17 17 17 17 16 16 16 15 15 14 14 13 13 12 12 11 11 11 10 10 10 10 9 9 9 9 9 9 9 9 8
13 13 14 14 14 15 15 15 15 15 16 16 16 16 16 16 16 16 15 15 15 15 14 14 13 13 12 12 11 11 10 10 10 10 10 10 10 10 9 9 9 9 9 9
13 13 13 14 14 14 14 14 15 15 15 15 15 15 15 15 15 15 15 14 14 14 14 14 13 12 12 12 11 11 10 10 10 10 10 10 10 10 10 9 9 9 9 9
13 13 13 13 13 13 13 13 13 14 14 14 14 14 14 14 14 14 13 14 14 14 13 13 13 12 12 11 11 10 10 10 10 10 10 10 10 10 10 10 9 9 9 9
12 12 13 13 13 13 13 13 13 13 13 12 12 12 12 13 13 13 13 13 13 13 13 13 12 12 11 11 11 10 10 10 9 9 9 10 10 10 10 10 10 9 9 9
12 12 12 12 12 12 12 12 12 12 12 12 12 12 12 12 12 12 12 12 12 12 12 12 12 11 11 11 10 10 10 9 9 9 9 9 10 10 10 10 10 10 9 9
11 11 11 11 11 11 11 11 11 11 11 11 11 11 11 11 11 11 11 11 11 11 11 11 11 11 10 10 10 9 9 9 9 9 9 9 9 10 10 10 10 10 10 9
11 10 10 10 10 10 10 10 10 10 10 10 10 10 10 10 10 10 10 11 11 11 10 10 10 10 10 9 9 9 9 9 9 9 9 9 9 9 10 10 10 10 10 10
10 10 10 10 10 10 10 10 10 10 10 10 9 9 9 9 9 9 10 10 10 10 10 10 9 9 9 9 9 9 9 8 8 8 8 9 9 9 9 10 10 10 10 10
10 10 10 10 10 9 9 9 9 9 9 9 9 9 9 9 9 9 9 9 9 9 9 9 9 8 8 8 8 8 8 8 8 8 8 8 9 9 9 9 10 10 10 10
9 9 9 9 9 9 9 9 9 9 9 9 8 8 8 8 8 8 8 8 8 8 8 8 8 8 8 8 8 8 7 7 7 7 8 8 8 8 9 9 9 10 10 10

GEFSNGP_850_meantemp_078.txt.gz
Temperature
28 28 28 28 28 27 27 27 27 27 27 27 27 27 25 24 23 22 21 20 20 19 18 17 16 15 15 14 13 13 12 12 12 11 10 10 10 10 9 9 9 9 9 9
27 28 28 27 28 28 27 27 27 27 27 28 26 25 24 23 23 22 21 21 20 19 18 17 16 15 15 14 13 13 12 12 11 11 10 10 10 9 9 9 9 9 9 9
27 28 27 27 28 28 27 28 27 27 27 27 26 25 24 23 23 22 22 21 20 19 18 17 16 15 14 14 13 13 12 11 11 11 10 10 10 9 9 9 9 9 9 9
27 26 25 27 28 28 28 28 28 27 27 27 26 25 24 23 22 22 21 21 20 19 18 17 16 15 14 14 13 13 12 12 11 10 10 10 10 9 9 9 9 9 9 9
26 26 26 28 28 28 27 27 28 28 27 26 25 24 24 22 22 22 21 20 19 19 18 17 16 15 14 14 13 13 12 12 11 10 10 10 9 9 9 9 9 9 9 8
26 25 25 27 28 27 27 26 28 27 27 26 25 25 26 23 22 21 21 20 19 18 17 16 16 15 14 14 13 13 12 11 11 10 10 10 9 9 9 9 9 9 9 9
25 25 26 28 27 26 26 26 27 27 26 26 25 25 24 23 22 21 20 19 18 18 17 16 15 15 14 14 13 13 12 11 11 10 10 10 9 9 9 9 9 9 9 9
25 25 26 26 26 27 26 26 26 26 26 25 25 24 23 22 21 21 20 19 18 18 17 16 15 15 14 13 13 12 11 11 11 10 10 10 10 9 9 9 9 9 9 9
26 26 25 25 25 25 24 24 25 25 25 24 24 24 23 22 21 20 20 19 18 17 17 16 15 15 14 14 13 12 12 11 11 10 10 10 10 10 9 9 9 9 9 9
25 26 26 25 24 23 23 23 23 24 24 24 24 23 23 22 21 20 19 19 18 17 17 16 15 15 14 13 13 12 12 11 11 11 10 10 10 10 10 10 9 9 9 9
24 25 25 24 22 21 21 22 22 23 23 23 23 22 22 21 20 19 19 18 17 17 16 16 15 15 14 13 13 12 12 11 11 11 11 10 10 10 10 9 9 9 9 9
24 22 22 22 20 20 20 21 21 21 21 21 21 21 21 20 19 19 18 18 17 17 16 16 15 15 14 13 13 12 12 12 12 12 11 11 11 10 10 10 10 9 9 9
19 19 19 19 19 19 19 19 20 19 19 19 19 19 19 18 18 17 17 17 17 17 16 16 15 15 14 13 13 12 12 12 12 11 11 11 11 10 10 10 10 10 9 9
17 18 18 18 18 18 18 19 19 18 18 18 18 18 18 17 17 17 17 17 17 16 16 15 15 14 14 13 13 13 12 12 11 11 11 11 10 10 10 10 10 10 10 9
16 17 17 17 17 17 17 17 17 17 17 17 16 16 16 16 16 16 16 16 16 16 15 15 14 14 14 13 13 12 12 12 12 11 11 11 11 10 10 10 10 10 10 10
16 16 16 16 16 16 16 16 16 16 16 15 15 15 15 15 15 15 15 15 15 15 14 14 13 13 13 13 13 12 12 12 12 11 11 11 11 11 11 10 10 10 10 10
16 15 15 15 15 15 15 15 15 15 15 15 14 14 14 14 14 14 14 14 13 13 13 13 13 12 12 12 12 12 12 12 11 11 11 11 11 11 11 10 10 11 10 10
14 14 14 14 14 14 14 14 14 14 14 14 14 14 14 13 13 13 13 13 13 13 12 12 12 12 11 11 11 11 12 12 12 11 11 11 11 11 11 10 10 10 10 10
13 13 13 13 13 13 13 13 13 13 13 13 13 13 13 12 12 12 12 12 12 12 12 11 11 11 11 11 11 11 11 11 11 11 11 11 10 11 11 10 10 10 10 10
12 12 12 12 12 12 12 12 13 12 12 12 12 12 12 12 11 11 11 11 11 11 10 10 10 10 10 10 10 10 11 11 11 11 11 11 11 11 11 10 10 10 10 10
12 12 12 12 12 12 12 12 12 12 12 11 11 11 11 11 11 11 11 11 10 10 10 10 10 10 10 10 10 10 10 10 10 11 11 11 11 11 10 10 10 10 10 10
12 12 11 12 11 11 11 11 11 11 11 11 11 11 10 10 10 10 10 10 10 9 9 9 10 9 9 9 9 10 10 10 10 10 10 10 10 10 10 10 10 10 10 10
11 11 11 11 11 11 11 11 11 11 10 10 10 10 10 10 10 10 10 10 9 9 8 9 9 8 8 8 9 9 9 9 10 10 10 10 9 9 9 10 10 10 10 10
10 10 10 10 10 10 10 11 10 10 10 10 10 10 10 10 10 10 9 9 8 8 8 8 8 8 8 8 8 8 9 9 9 9 9 9 9 9 9 9 9 9 9 9
10 10 10 10 10 10 10 10 10 10 10 10 10 10 10 10 9 9 9 8 8 8 8 7 7 7 7 7 8 8 8 8 8 8 8 8 8 8 9 9 9 9 9 9
10 10 10 10 10 9 10 10 10 10 10 10 10 10 10 9 9 9 8 8 8 7 7 7 7 7 7 7 7 7 7 7 7 7 7 8 8 8 8 8 9 9 9 9
10 10 10 10 10 10 10 10 10 10 10 9 9 9 9 9 9 9 8 8 7 7 7 6 6 6 6 6 6 6 6 6 6 6 7 7 7 7 8 8 8 8 8 9

GEFSNGP_850_meantemp_084.txt.gz
Temperature
28 28 28 28 29 29 29 29 28 27 27 28 29 29 28 28 27 26 25 24 23 22 21 20 19 19 18 18 17 16 16 15 15 14 14 13 13 12 12 12 12 11 11 11
28 29 29 29 30 30 30 30 30 29 29 29 29 29 28 28 27 26 25 24 23 22 21 20 19 19 18 17 17 16 15 15 15 14 14 13 13 12 12 12 12 11 11 11
27 29 29 28 30 30 30 30 30 29 29 29 29 28 28 27 27 26 25 24 24 22 21 20 19 19 18 17 17 16 16 15 15 14 14 13 13 13 12 12 12 11 11 11
27 27 26 28 30 30 30 30 30 30 30 29 29 28 27 27 26 26 25 24 23 22 21 20 19 19 18 17 17 16 16 15 15 14 14 13 13 12 12 12 12 11 11 11
27 26 27 28 28 28 28 28 30 30 30 29 29 28 27 26 26 25 25 24 23 22 22 21 20 19 18 17 17 17 16 16 15 14 14 13 13 12 12 12 12 11 11 11
27 26 25 26 27 27 27 26 28 29 28 28 28 27 27 26 25 25 24 23 23 22 21 20 20 19 18 17 17 17 16 16 15 14 14 13 13 13 12 12 12 11 11 11
26 26 26 26 26 26 24 24 26 27 27 27 27 26 26 25 25 24 23 23 22 22 21 20 19 19 18 17 17 16 16 15 15 14 14 14 13 13 12 12 12 12 11 11
25 24 24 24 25 23 22 23 25 26 27 26 26 26 25 25 24 23 23 22 22 21 20 20 19 18 18 17 17 16 16 15 15 14 14 14 13 13 12 12 12 12 11 11
25 23 22 21 22 22 23 23 24 25 26 26 25 25 25 24 24 23 23 22 21 21 20 19 18 18 17 17 17 16 16 15 15 15 14 14 13 13 12 12 12 12 12 12
25 23 22 22 22 23 23 23 24 25 25 25 25 25 24 23 23 22 22 21 21 20 19 19 18 18 17 17 16 16 16 15 15 14 14 14 13 13 13 13 13 12 12 12
24 24 23 22 22 23 23 23 24 24 24 24 24 23 23 22 22 21 21 21 20 20 19 19 18 17 17 17 16 16 15 15 14 14 14 14 14 14 14 13 13 13 12 12
24 23 23 22 22 22 23 23 23 22 22 22 22 22 21 21 20 20 20 20 19 19 19 18 18 17 17 16 16 15 15 14 14 14 14 14 14 14 14 14 13 13 12 12
23 23 23 23 22 22 23 22 22 21 21 21 20 20 20 19 19 19 19 18 18 18 17 17 17 16 16 16 15 15 14 14 14 14 14 14 14 14 14 14 13 13 13 12
22 22 22 22 22 21 21 21 21 20 20 19 19 19 18 18 18 18 17 17 17 17 16 16 16 15 15 15 15 14 14 14 14 13 14 14 14 14 14 13 13 13 13 12
21 21 21 21 21 20 20 20 20 19 19 18 18 17 17 17 17 16 16 16 16 16 15 15 15 14 14 14 13 13 13 13 13 13 13 13 14 14 13 13 13 13 13 12
20 20 20 20 19 19 19 19 18 18 18 17 17 17 16 16 16 15 15 15 15 14 14 14 13 13 13 13 13 13 13 13 13 13 13 13 13 13 13 13 13 13 13 12
19 19 19 18 18 18 17 17 17 17 17 16 16 16 16 15 15 14 14 14 14 13 13 13 12 12 12 12 12 12 12 12 13 13 13 13 13 13 13 13 13 13 12 12
17 17 17 17 17 16 16 16 16 16 16 16 16 15 15 14 14 14 13 13 13 13 12 12 12 12 11 11 11 11 11 12 12 12 13 13 13 13 13 13 13 12 12 12
16 16 16 16 16 16 16 15 15 15 15 15 15 14 14 14 13 13 13 12 12 12 12 11 11 11 11 11 11 11 11 11 12 12 12 12 12 12 12 12 12 12 12 12
16 15 15 15 15 15 15 15 15 14 14 14 14 14 13 13 13 12 12 12 12 12 11 11 11 11 10 10 10 10 10 11 11 11 12 12 12 12 12 12 12 12 12 11
15 15 15 15 15 14 14 14 14 14 14 14 13 13 13 12 12 12 12 12 11 11 11 11 11 10 10 9 9 9 10 10 10 11 11 11 12 11 11 11 11 11 11 11
15 14 14 14 14 14 13 13 13 13 13 13 13 12 12 12 12 12 12 11 11 11 10 10 10 10 9 9 9 9 9 10 10 10 10 10 11 11 11 11 11 11 10 10
14 14 13 13 13 13 13 13 13 13 13 12 12 12 12 12 11 11 11 11 11 11 10 10 10 9 9 9 8 9 9 9 9 9 9 9 10 10 10 10 10 10 10 10
13 13 13 13 13 12 12 13 13 12 12 12 12 12 12 12 12 12 11 11 11 10 10 10 9 9 9 8 8 8 8 8 8 8 8 9 9 9 9 9 9 9 10 10
12 12 12 12 12 12 12 12 12 12 12 12 12 12 12 12 11 11 11 11 10 10 10 9 9 9 8 8 8 7 7 7 7 7 7 8 8 8 8 9 9 9 9 9
12 12 12 12 12 12 12 12 12 12 12 12 12 12 12 11 11 11 11 10 10 10 9 9 8 8 8 7 7 7 7 6 6 6 7 7 7 7 8 8 8 8 9 9
12 12 12 12 12 12 12 12 12 12 12 11 11 11 11 11 11 10 10 10 9 9 9 8 8 7 7 6 6 6 6 5 5 6 6 6 6 6 7 7 7 8 8 8